Time,TemperatureF,DewpointF,PressureIn,WindDirection,WindDirectionDegrees,WindSpeedMPH,WindSpeedGustMPH,Humidity,HourlyPrecipIn,Conditions,Clouds,dailyrainin,SoftwareType,DateUTC
2013-08-18 00:05:00,66.6,65.0,30.06,East,86,4.0,-999.0,93,-99.99,,,0.02,weatherlink.com 1.10,2013-08-18 05:05:00,
2013-08-18 00:20:00,66.7,65.0,30.06,NE,52,1.0,-999.0,93,-99.99,,,0.02,weatherlink.com 1.10,2013-08-18 05:20:00,
2013-08-18 00:35:00,66.7,65.0,30.06,ENE,58,0.0,-999.0,93,-99.99,,,0.02,weatherlink.com 1.10,2013-08-18 05:35:00,
2013-08-18 00:50:00,66.6,65.0,30.06,ENE,58,1.0,-999.0,93,-99.99,,,0.02,weatherlink.com 1.10,2013-08-18 05:50:00,
2013-08-18 01:05:00,66.5,65.0,30.05,ENE,58,0.0,-999.0,93,-99.99,,,0.02,weatherlink.com 1.10,2013-08-18 06:05:00,
2013-08-18 01:20:00,66.5,65.0,30.05,ENE,58,0.0,-999.0,94,-99.99,,,0.02,weatherlink.com 1.10,2013-08-18 06:20:00,
2013-08-18 01:35:00,66.4,65.0,30.05,ENE,60,3.0,-999.0,94,-99.99,,,0.02,weatherlink.com 1.10,2013-08-18 06:35:00,
2013-08-18 01:50:00,66.5,65.0,30.05,ENE,62,0.0,-999.0,94,-99.99,,,0.02,weatherlink.com 1.10,2013-08-18 06:50:00,
2013-08-18 02:05:00,66.5,65.0,30.05,NNE,33,2.0,-999.0,94,-99.99,,,0.02,weatherlink.com 1.10,2013-08-18 07:05:00,
2013-08-18 02:20:00,66.5,65.0,30.04,NE,51,0.0,-999.0,94,-99.99,,,0.02,weatherlink.com 1.10,2013-08-18 07:20:00,
2013-08-18 02:35:00,66.5,65.0,30.04,NE,45,3.0,-999.0,94,-99.99,,,0.02,weatherlink.com 1.10,2013-08-18 07:35:00,
2013-08-18 02:50:00,66.5,65.0,30.04,NE,55,3.0,-999.0,94,-99.99,,,0.02,weatherlink.com 1.10,2013-08-18 07:50:00,
2013-08-18 03:05:00,66.5,65.0,30.04,ENE,78,2.0,-999.0,94,-99.99,,,0.00,weatherlink.com 1.10,2013-08-18 08:05:00,
2013-08-18 03:20:00,66.5,65.0,30.05,East,92,1.0,-999.0,94,-99.99,,,0.00,weatherlink.com 1.10,2013-08-18 08:20:00,
2013-08-18 03:36:00,66.6,65.0,30.05,ENE,78,2.0,-999.0,94,-99.99,,,0.00,weatherlink.com 1.10,2013-08-18 08:36:00,
2013-08-18 03:51:00,66.6,65.0,30.05,East,83,2.0,-999.0,94,-99.99,,,0.01,weatherlink.com 1.10,2013-08-18 08:51:00,
2013-08-18 04:06:00,66.5,65.0,30.06,East,83,0.0,-999.0,94,-99.99,,,0.02,weatherlink.com 1.10,2013-08-18 09:06:00,
2013-08-18 04:21:00,66.4,65.0,30.06,East,83,0.0,-999.0,95,-99.99,,,0.05,weatherlink.com 1.10,2013-08-18 09:21:00,
2013-08-18 04:36:00,66.3,65.0,30.06,East,83,1.0,-999.0,95,-99.99,,,0.06,weatherlink.com 1.10,2013-08-18 09:36:00,
2013-08-18 04:51:00,66.2,65.0,30.06,East,83,0.0,-999.0,95,-99.99,,,0.08,weatherlink.com 1.10,2013-08-18 09:51:00,
2013-08-18 05:06:00,66.1,65.0,30.06,East,83,1.0,-999.0,96,-99.99,,,0.09,weatherlink.com 1.10,2013-08-18 10:06:00,
2013-08-18 05:21:00,66.1,65.0,30.07,East,83,2.0,-999.0,96,-99.99,,,0.09,weatherlink.com 1.10,2013-08-18 10:21:00,
2013-08-18 05:36:00,66.1,65.0,30.07,NE,48,0.0,-999.0,96,-99.99,,,0.09,weatherlink.com 1.10,2013-08-18 10:36:00,
2013-08-18 05:51:00,66.2,65.0,30.08,NE,48,1.0,-999.0,96,-99.99,,,0.10,weatherlink.com 1.10,2013-08-18 10:51:00,
2013-08-18 06:06:00,66.2,65.0,30.08,ENE,76,2.0,-999.0,96,-99.99,,,0.11,weatherlink.com 1.10,2013-08-18 11:06:00,
2013-08-18 06:21:00,66.3,65.0,30.09,East,98,4.0,-999.0,96,-99.99,,,0.15,weatherlink.com 1.10,2013-08-18 11:21:00,
2013-08-18 06:36:00,66.4,65.0,30.09,SW,217,1.0,-999.0,96,-99.99,,,0.21,weatherlink.com 1.10,2013-08-18 11:36:00,
2013-08-18 06:51:00,66.5,65.0,30.10,SSW,192,2.0,-999.0,96,-99.99,,,0.26,weatherlink.com 1.10,2013-08-18 11:51:00,
2013-08-18 07:06:00,66.6,66.0,30.10,WSW,244,1.0,-999.0,96,-99.99,,,0.31,weatherlink.com 1.10,2013-08-18 12:06:00,
2013-08-18 07:21:00,66.6,66.0,30.10,SW,217,0.0,-999.0,96,-99.99,,,0.32,weatherlink.com 1.10,2013-08-18 12:21:00,
2013-08-18 07:36:00,66.7,66.0,30.11,ESE,119,1.0,-999.0,96,-99.99,,,0.32,weatherlink.com 1.10,2013-08-18 12:36:00,
2013-08-18 07:51:00,66.9,66.0,30.11,SW,235,1.0,-999.0,96,-99.99,,,0.32,weatherlink.com 1.10,2013-08-18 12:51:00,
2013-08-18 08:06:00,67.0,66.0,30.12,South,173,2.0,-999.0,96,-99.99,,,0.32,weatherlink.com 1.10,2013-08-18 13:06:00,
2013-08-18 08:21:00,67.1,66.0,30.12,SE,136,1.0,-999.0,96,-99.99,,,0.32,weatherlink.com 1.10,2013-08-18 13:21:00,
2013-08-18 08:36:00,67.2,66.0,30.11,West,268,0.0,-999.0,96,-99.99,,,0.32,weatherlink.com 1.10,2013-08-18 13:36:00,
2013-08-18 08:51:00,67.6,67.0,30.11,West,267,0.0,-999.0,97,-99.99,,,0.32,weatherlink.com 1.10,2013-08-18 13:51:00,
2013-08-18 09:06:00,68.2,67.0,30.11,West,267,1.0,-999.0,97,-99.99,,,0.32,weatherlink.com 1.10,2013-08-18 14:06:00,
2013-08-18 09:21:00,68.6,68.0,30.11,WSW,258,0.0,-999.0,96,-99.99,,,0.32,weatherlink.com 1.10,2013-08-18 14:21:00,
2013-08-18 09:36:00,69.0,68.0,30.12,WSW,257,0.0,-999.0,96,-99.99,,,0.32,weatherlink.com 1.10,2013-08-18 14:36:00,
2013-08-18 09:51:00,69.0,68.0,30.12,WSW,257,0.0,-999.0,95,-99.99,,,0.32,weatherlink.com 1.10,2013-08-18 14:51:00,
2013-08-18 10:06:00,69.0,68.0,30.13,SSE,162,0.0,-999.0,95,-99.99,,,0.32,weatherlink.com 1.10,2013-08-18 15:06:00,
2013-08-18 10:21:00,69.3,68.0,30.13,NW,309,0.0,-999.0,94,-99.99,,,0.32,weatherlink.com 1.10,2013-08-18 15:21:00,
2013-08-18 10:36:00,69.9,68.0,30.13,NW,304,0.0,-999.0,93,-99.99,,,0.32,weatherlink.com 1.10,2013-08-18 15:36:00,
2013-08-18 10:51:00,70.5,68.0,30.14,WNW,298,0.0,-999.0,93,-99.99,,,0.32,weatherlink.com 1.10,2013-08-18 15:51:00,
2013-08-18 11:06:00,70.6,68.0,30.13,East,97,4.0,-999.0,92,-99.99,,,0.32,weatherlink.com 1.10,2013-08-18 16:06:00,
2013-08-18 11:21:00,70.6,68.0,30.13,SE,124,0.0,-999.0,90,-99.99,,,0.32,weatherlink.com 1.10,2013-08-18 16:21:00,
2013-08-18 11:36:00,70.9,68.0,30.13,SE,124,0.0,-999.0,91,-99.99,,,0.32,weatherlink.com 1.10,2013-08-18 16:36:00,
2013-08-18 11:51:00,71.2,69.0,30.12,SE,124,0.0,-999.0,91,-99.99,,,0.32,weatherlink.com 1.10,2013-08-18 16:51:00,
2013-08-18 12:06:00,71.6,68.0,30.12,SE,124,0.0,-999.0,89,-99.99,,,0.32,weatherlink.com 1.10,2013-08-18 17:06:00,
2013-08-18 12:21:00,72.0,69.0,30.12,SE,124,2.0,-999.0,90,-99.99,,,0.32,weatherlink.com 1.10,2013-08-18 17:21:00,
2013-08-18 12:36:00,71.9,69.0,30.12,East,95,0.0,-999.0,91,-99.99,,,0.32,weatherlink.com 1.10,2013-08-18 17:36:00,
2013-08-18 12:51:00,71.7,69.0,30.12,East,95,0.0,-999.0,91,-99.99,,,0.32,weatherlink.com 1.10,2013-08-18 17:51:00,
2013-08-18 13:06:00,71.6,69.0,30.12,East,95,1.0,-999.0,92,-99.99,,,0.33,weatherlink.com 1.10,2013-08-18 18:06:00,
2013-08-18 13:21:00,71.5,69.0,30.12,East,80,1.0,-999.0,92,-99.99,,,0.34,weatherlink.com 1.10,2013-08-18 18:21:00,
2013-08-18 13:36:00,71.4,69.0,30.11,ENE,78,3.0,-999.0,93,-99.99,,,0.34,weatherlink.com 1.10,2013-08-18 18:36:00,
2013-08-18 13:51:00,71.4,69.0,30.11,ENE,61,2.0,-999.0,93,-99.99,,,0.35,weatherlink.com 1.10,2013-08-18 18:51:00,
2013-08-18 14:06:00,71.7,70.0,30.09,ENE,68,4.0,-999.0,93,-99.99,,,0.35,weatherlink.com 1.10,2013-08-18 19:06:00,
2013-08-18 14:21:00,71.6,69.0,30.09,ENE,72,3.0,-999.0,92,-99.99,,,0.35,weatherlink.com 1.10,2013-08-18 19:21:00,
2013-08-18 14:36:00,71.9,70.0,30.09,NE,53,0.0,-999.0,92,-99.99,,,0.35,weatherlink.com 1.10,2013-08-18 19:36:00,
2013-08-18 14:51:00,72.1,69.0,30.08,East,94,4.0,-999.0,90,-99.99,,,0.35,weatherlink.com 1.10,2013-08-18 19:51:00,
2013-08-18 15:06:00,72.3,70.0,30.08,ENE,65,3.0,-999.0,91,-99.99,,,0.35,weatherlink.com 1.10,2013-08-18 20:06:00,
2013-08-18 15:21:00,72.6,70.0,30.08,East,81,2.0,-999.0,90,-99.99,,,0.35,weatherlink.com 1.10,2013-08-18 20:21:00,
2013-08-18 15:36:00,72.6,70.0,30.07,NE,34,1.0,-999.0,91,-99.99,,,0.35,weatherlink.com 1.10,2013-08-18 20:36:00,
2013-08-18 15:52:00,72.6,70.0,30.08,NE,49,0.0,-999.0,91,-99.99,,,0.35,weatherlink.com 1.10,2013-08-18 20:52:00,
2013-08-18 16:07:00,72.6,70.0,30.08,NE,49,0.0,-999.0,92,-99.99,,,0.35,weatherlink.com 1.10,2013-08-18 21:07:00,
2013-08-18 16:22:00,72.6,71.0,30.07,NNE,30,0.0,-999.0,93,-99.99,,,0.35,weatherlink.com 1.10,2013-08-18 21:22:00,
2013-08-18 16:37:00,72.6,71.0,30.08,NNE,30,0.0,-999.0,93,-99.99,,,0.35,weatherlink.com 1.10,2013-08-18 21:37:00,
2013-08-18 16:52:00,72.6,71.0,30.08,NNE,30,0.0,-999.0,93,-99.99,,,0.35,weatherlink.com 1.10,2013-08-18 21:52:00,
2013-08-18 17:07:00,72.7,71.0,30.07,NNE,30,1.0,-999.0,94,-99.99,,,0.35,weatherlink.com 1.10,2013-08-18 22:07:00,
2013-08-18 17:22:00,72.7,71.0,30.07,NNE,30,0.0,-999.0,94,-99.99,,,0.35,weatherlink.com 1.10,2013-08-18 22:22:00,
2013-08-18 17:37:00,72.7,71.0,30.07,NNE,30,0.0,-999.0,93,-99.99,,,0.35,weatherlink.com 1.10,2013-08-18 22:37:00,
2013-08-18 17:52:00,72.6,71.0,30.07,ENE,60,2.0,-999.0,93,-99.99,,,0.35,weatherlink.com 1.10,2013-08-18 22:52:00,
2013-08-18 18:07:00,72.6,71.0,30.07,ENE,73,2.0,-999.0,93,-99.99,,,0.35,weatherlink.com 1.10,2013-08-18 23:07:00,
2013-08-18 18:22:00,72.6,71.0,30.06,NE,42,3.0,-999.0,93,-99.99,,,0.35,weatherlink.com 1.10,2013-08-18 23:22:00,
2013-08-18 18:37:00,72.6,71.0,30.05,ENE,68,2.0,-999.0,93,-99.99,,,0.35,weatherlink.com 1.10,2013-08-18 23:37:00,
2013-08-18 18:52:00,72.4,70.0,30.05,ENE,69,0.0,-999.0,93,-99.99,,,0.35,weatherlink.com 1.10,2013-08-18 23:52:00,
2013-08-18 19:07:00,72.2,70.0,30.06,ENE,70,1.0,-999.0,94,-99.99,,,0.35,weatherlink.com 1.10,2013-08-19 00:07:00,
2013-08-18 19:22:00,72.0,70.0,30.07,ENE,65,1.0,-999.0,94,-99.99,,,0.35,weatherlink.com 1.10,2013-08-19 00:22:00,
2013-08-18 19:37:00,71.9,70.0,30.07,ENE,65,1.0,-999.0,94,-99.99,,,0.35,weatherlink.com 1.10,2013-08-19 00:37:00,
2013-08-18 19:52:00,71.7,70.0,30.06,ENE,73,2.0,-999.0,94,-99.99,,,0.35,weatherlink.com 1.10,2013-08-19 00:52:00,
2013-08-18 20:07:00,71.5,70.0,30.06,NNE,30,2.0,-999.0,95,-99.99,,,0.35,weatherlink.com 1.10,2013-08-19 01:07:00,
2013-08-18 20:22:00,71.4,70.0,30.07,East,97,4.0,-999.0,95,-99.99,,,0.35,weatherlink.com 1.10,2013-08-19 01:22:00,
2013-08-18 20:37:00,71.3,70.0,30.07,NE,37,1.0,-999.0,95,-99.99,,,0.35,weatherlink.com 1.10,2013-08-19 01:37:00,
2013-08-18 20:52:00,71.3,70.0,30.07,NE,36,0.0,-999.0,95,-99.99,,,0.35,weatherlink.com 1.10,2013-08-19 01:52:00,
2013-08-18 21:07:00,71.2,70.0,30.07,NE,37,2.0,-999.0,95,-99.99,,,0.35,weatherlink.com 1.10,2013-08-19 02:07:00,
2013-08-18 21:22:00,71.0,70.0,30.08,ENE,61,1.0,-999.0,95,-99.99,,,0.36,weatherlink.com 1.10,2013-08-19 02:22:00,
2013-08-18 21:37:00,70.4,69.0,30.09,East,91,1.0,-999.0,95,-99.99,,,0.39,weatherlink.com 1.10,2013-08-19 02:37:00,
2013-08-18 21:52:00,70.0,69.0,30.09,East,84,2.0,-999.0,95,-99.99,,,0.40,weatherlink.com 1.10,2013-08-19 02:52:00,
2013-08-18 22:07:00,69.9,69.0,30.08,East,88,1.0,-999.0,95,-99.99,,,0.42,weatherlink.com 1.10,2013-08-19 03:07:00,
2013-08-18 22:22:00,69.8,69.0,30.09,East,89,3.0,-999.0,96,-99.99,,,0.43,weatherlink.com 1.10,2013-08-19 03:22:00,
2013-08-18 22:37:00,69.8,69.0,30.09,East,100,2.0,-999.0,96,-99.99,,,0.46,weatherlink.com 1.10,2013-08-19 03:37:00,
2013-08-18 22:52:00,69.9,69.0,30.08,ENE,57,2.0,-999.0,96,-99.99,,,0.49,weatherlink.com 1.10,2013-08-19 03:52:00,
2013-08-18 23:07:00,69.9,69.0,30.08,ENE,74,2.0,-999.0,96,-99.99,,,0.50,weatherlink.com 1.10,2013-08-19 04:07:00,
2013-08-18 23:22:00,69.9,69.0,30.07,ENE,69,4.0,-999.0,96,-99.99,,,0.50,weatherlink.com 1.10,2013-08-19 04:22:00,
2013-08-18 23:37:00,69.9,69.0,30.08,ENE,65,0.0,-999.0,96,-99.99,,,0.51,weatherlink.com 1.10,2013-08-19 04:37:00,
2013-08-18 23:52:00,69.9,69.0,30.08,ENE,65,0.0,-999.0,96,-99.99,,,0.52,weatherlink.com 1.10,2013-08-19 04:52:00,